Location: Tamazert
(32.6352°N, 5.2072°W)
Time: 03:57:22
(UTC+00:00)

Vanguard 2 Rocket - Pass Details

Date: 03 October 2022
Orbit: 555 x 3321 km, 32.9° (Epoch: 05 December)

Event Time Altitude Azimuth Distance (km) Brightness Sun altitude
Rises 04:14:29 0° 282° (WNW) 4,250 - -26.3°
Reaches altitude 10° 04:18:07 10° 276° (W) 2,864 - -25.5°
Maximum altitude 04:24:01 39° 209° (SSW) 1,103 - -24.3°
Exits shadow 04:24:50 37° 184° (S) 1,112 7.2 -24.1°
Drops below altitude 10° 04:28:06 10° 138° (SE) 1,963 9.0 -23.5°
Sets 04:30:10 0° 130° (SE) 2,766 10.0 -23.0°
